Location: Baia Mare
(47.6567°N, 23.5850°E)
Time: 14:13:25
(UTC+03:00)

ISS - Pass Details

Date: 10 July 2019
Orbit: 409 x 418 km, 51.6° (Epoch: 21 July)

Event Time Altitude Azimuth Distance (km) Brightness Sun altitude
Exits shadow 02:41:56 61° 236° (SW) 469 -3.8 -18.2°
Maximum altitude 02:42:26 85° 155° (SSE) 418 -3.9 -18.2°
Drops below altitude 10° 02:45:45 10° 67° (ENE) 1,480 -0.4 -18.1°
Sets 02:47:51 0° 67° (ENE) 2,342 0.7 -17.9°
